Regional Weather Roundup
Issued by NWS

Home | Current Version | Previous Version | Graphics & Text | Print | Product List | Glossary On
Versions: 1 2 3 4 5 6 7 8 9 10 11 12 13 14 15 16 17 18 19 20 21 22 23 24 25 26 27 28 29 30 31 32 33 34 35 36 37 38 39 40 41 42 43 44 45 46 47 48 49 50
535
ASUS45 KCYS 111910
RWRWY

WYOMING REGIONAL WEATHER ROUNDUP
NATIONAL WEATHER SERVICE CHEYENNE WY
1200 PM MST THU FEB 11 2016

NOTE:  "FAIR" INDICATES FEW OR NO CLOUDS BELOW 12,000 FEET
WITH NO SIGNIFICANT WEATHER AND/OR OBSTRUCTIONS TO VISIBILITY.

WYZ001-112000-
YELLOWSTONE NATIONAL PARK

CITY           SKY/WX    TMP DP  RH WIND       PRES   REMARKS
LK YELLOWSTONE   N/A     35  20  54 E8        30.36S WCI  29
W YELLOWSTONE  NOT AVBL

$$
WYZ002>013-054>058-071-098>099-112000-
NORTHERN WYOMING

CITY           SKY/WX    TMP DP  RH WIND       PRES   REMARKS
JACKSON        MOSUNNY   27  19  74 CALM      30.38F
CODY           FAIR      55  19  24 N15G22    30.17S
GREYBULL       FAIR      49  26  41 CALM      30.17F
WORLAND        FAIR      46  25  43 CALM      30.18S
SHERIDAN       FAIR      56  27  32 NW30      30.16R
BUFFALO        FAIR      50  27  40 N28G37    30.13S
GILLETTE       FAIR      51  29  42 NW18G28   30.11S
HULETT         FAIR      50  27  40 NW21G38   30.07S
NEWCASTLE      FAIR      52  27  37 NW22G29   30.09R

$$
WYZ014>020-022>026-101>103-112000-
CENTRAL WYOMING

CITY           SKY/WX    TMP DP  RH WIND       PRES   REMARKS
BIG PINEY      FAIR      37  19  48 CALM      30.35F
PINEDALE         N/A     36  21  55 E6        30.35F WCI  31
DUBOIS         FAIR      48  14  25 NW26G44   30.21S
LANDER         FAIR      52  20  28 W10       30.17F
RIVERTON       FAIR      42  24  49 NE7       30.20R
CASPER         FAIR      42  24  49 SW13G29   30.18F
DOUGLAS        NOT AVBL

$$
WYZ021-027>030-104>119-112000-
SOUTHERN WYOMING

CITY           SKY/WX    TMP DP  RH WIND       PRES   REMARKS
EVANSTON       FAIR      37  16  42 SW6       30.41S WCI  32
KEMMERER       FAIR      37  21  52 W8        30.40S WCI  31
FORT BRIDGER   CLEAR     43  25  49 W21G26    30.40S
ROCK SPRINGS   FAIR     N/A N/A N/A MISG      30.36F
DIXON          FAIR      31  20  63 NE3       30.41F
RAWLINS        FAIR      38  21  50 W28G35    30.26F WCI  26
SARATOGA       FAIR      41  23  48 SW22G29   30.29F
LARAMIE        FAIR      48  24  39 MISG      30.21S
CHEYENNE       FAIR      53  22  29 NW23G36   30.14F
TORRINGTON     FAIR      56  22  26 NW22G29   30.12S
PINE BLUFFS    FAIR      54  25  32 NW30G40   30.12F

$$




USA.gov is the U.S. government's official web portal to all federal, state and local government web resources and services.